• In Belarus
  • List of Countries
  • For 7 days
  • Water Temperature
  • Satellite Maps
  • Weather Map
  • Weather Widgets
  • user-avatar
    Login

    Hourly Weather Chukva

    Today, 21 May, Monday

    Time Temperature Precipitation Wind Pressure Humidity
    00:00 +10°C° 0 mm 1 mps 739 mmHg 88%
    01:00 +10°C° 0 mm 1 mps 739 mmHg 89%
    02:00 +9°C° 0 mm 1 mps 738 mmHg 90%
    03:00 +9°C° 0 mm 1 mps 738 mmHg 90%
    04:00 +8°C° 0 mm 1 mps 738 mmHg 90%
    05:00 +8°C° 0 mm 1 mps 738 mmHg 90%
    06:00 +10°C° 0 mm 1 mps 738 mmHg 84%
    07:00 +12°C° 0 mm 2 mps 738 mmHg 78%
    08:00 +15°C° 0 mm 2 mps 739 mmHg 71%
    09:00 +16°C° 0 mm 3 mps 738 mmHg 67%
    10:00 +17°C° 0 mm 3 mps 738 mmHg 63%
    11:00 +18°C° 0 mm 4 mps 738 mmHg 59%
    12:00 +19°C° 0.1 mm 4 mps 738 mmHg 59%
    13:00 +19°C° 0.1 mm 4 mps 738 mmHg 59%
    14:00 +19°C° 0 mm 4 mps 737 mmHg 59%
    15:00 +19°C° 0.2 mm 4 mps 737 mmHg 61%
    16:00 +19°C° 0.2 mm 4 mps 737 mmHg 64%
    17:00 +18°C° 0.2 mm 4 mps 737 mmHg 67%
    18:00 +17°C° 0 mm 4 mps 737 mmHg 73%
    19:00 +14°C° 0 mm 3 mps 736 mmHg 79%
    20:00 +13°C° 0 mm 3 mps 736 mmHg 85%
    21:00 +12°C° 0 mm 3 mps 736 mmHg 86%
    22:00 +12°C° 0 mm 2 mps 736 mmHg 87%
    23:00 +10°C° 0 mm 2 mps 736 mmHg 88%

    Tomorrow, 22 May, Tuesday

    Time Temperature Precipitation Wind Pressure Humidity
    00:00 +10°C° 0 mm 2 mps 736 mmHg 89%
    01:00 +10°C° 0 mm 2 mps 736 mmHg 89%
    02:00 +10°C° 0 mm 2 mps 736 mmHg 89%
    03:00 +10°C° 0.2 mm 2 mps 735 mmHg 90%
    04:00 +10°C° 0.2 mm 2 mps 735 mmHg 91%
    05:00 +10°C° 0.2 mm 2 mps 735 mmHg 92%
    06:00 +13°C° 0.1 mm 2 mps 735 mmHg 89%
    07:00 +14°C° 0.1 mm 2 mps 735 mmHg 86%
    08:00 +16°C° 0.1 mm 2 mps 736 mmHg 83%
    09:00 +18°C° 0.6 mm 2 mps 736 mmHg 78%
    10:00 +19°C° 0.6 mm 3 mps 736 mmHg 74%
    11:00 +21°C° 0.6 mm 3 mps 736 mmHg 69%
    12:00 +21°C° 0.7 mm 3 mps 735 mmHg 67%
    13:00 +22°C° 0.7 mm 3 mps 735 mmHg 65%
    14:00 +22°C° 0.7 mm 3 mps 735 mmHg 62%
    15:00 +22°C° 0.4 mm 3 mps 735 mmHg 63%
    16:00 +23°C° 0.4 mm 2 mps 735 mmHg 64%
    17:00 +23°C° 0.4 mm 2 mps 735 mmHg 65%
    18:00 +21°C° 0.2 mm 2 mps 735 mmHg 72%
    19:00 +19°C° 0.2 mm 2 mps 735 mmHg 79%
    20:00 +18°C° 0.2 mm 1 mps 735 mmHg 86%
    21:00 +18°C° 0 mm 1 mps 735 mmHg 88%
    22:00 +16°C° 0 mm 1 mps 735 mmHg 89%
    23:00 +15°C° 0 mm 1 mps 736 mmHg 91%

    Day after tomorrow, 23 May, Wednesday

    Time Temperature Precipitation Wind Pressure Humidity
    00:00 +15°C° 0 mm 1 mps 736 mmHg 91%
    01:00 +15°C° 0 mm 1 mps 736 mmHg 91%
    02:00 +14°C° 0 mm 1 mps 736 mmHg 91%
    03:00 +14°C° 0 mm 1 mps 736 mmHg 90%
    04:00 +14°C° 0 mm 1 mps 736 mmHg 90%
    05:00 +14°C° 0 mm 1 mps 736 mmHg 90%
    06:00 +16°C° 0 mm 1 mps 736 mmHg 85%
    07:00 +19°C° 0 mm 1 mps 737 mmHg 80%
    08:00 +21°C° 0 mm 1 mps 737 mmHg 75%
    09:00 +22°C° 0.4 mm 1 mps 737 mmHg 71%
    10:00 +24°C° 0.4 mm 1 mps 737 mmHg 67%
    11:00 +25°C° 0.4 mm 1 mps 737 mmHg 64%
    12:00 +25°C° 0.6 mm 1 mps 737 mmHg 64%
    13:00 +25°C° 0.6 mm 1 mps 737 mmHg 64%
    14:00 +25°C° 0.6 mm 1 mps 737 mmHg 65%
    15:00 +25°C° 0.7 mm 1 mps 736 mmHg 68%
    16:00 +25°C° 0.7 mm 1 mps 736 mmHg 71%
    17:00 +25°C° 0.7 mm 1 mps 736 mmHg 74%
    18:00 +23°C° 1.1 mm 1 mps 736 mmHg 78%
    19:00 +20°C° 1.1 mm 2 mps 736 mmHg 83%
    20:00 +19°C° 1.1 mm 2 mps 736 mmHg 87%
    21:00 +18°C° 0.5 mm 2 mps 736 mmHg 89%
    22:00 +17°C° 0.5 mm 2 mps 736 mmHg 91%
    23:00 +17°C° 0.5 mm 2 mps 736 mmHg 93%

    24 May, Thursday

    Time Temperature Precipitation Wind Pressure Humidity
    00:00 +16°C° 0 mm 2 mps 736 mmHg 94%
    01:00 +16°C° 0 mm 2 mps 736 mmHg 94%
    02:00 +15°C° 0 mm 2 mps 736 mmHg 95%
    03:00 +15°C° 0 mm 2 mps 736 mmHg 95%
    04:00 +15°C° 0 mm 2 mps 736 mmHg 95%
    05:00 +14°C° 0 mm 1 mps 736 mmHg 95%
    06:00 +16°C° 0 mm 2 mps 736 mmHg 92%
    07:00 +17°C° 0 mm 2 mps 737 mmHg 88%
    08:00 +18°C° 0 mm 2 mps 737 mmHg 84%
    09:00 +20°C° 0 mm 3 mps 737 mmHg 77%
    10:00 +21°C° 0 mm 3 mps 737 mmHg 69%
    11:00 +24°C° 0 mm 3 mps 737 mmHg 62%
    12:00 +23°C° 0.1 mm 4 mps 737 mmHg 61%
    13:00 +25°C° 0.1 mm 4 mps 737 mmHg 61%
    14:00 +25°C° 0.1 mm 4 mps 737 mmHg 60%
    15:00 +23°C° 0.1 mm 4 mps 737 mmHg 64%
    16:00 +23°C° 0.1 mm 4 mps 737 mmHg 69%
    17:00 +22°C° 0.1 mm 5 mps 736 mmHg 73%
    18:00 +21°C° 0 mm 4 mps 736 mmHg 78%
    19:00 +20°C° 0 mm 4 mps 737 mmHg 84%
    20:00 +18°C° 0 mm 3 mps 737 mmHg 90%
    21:00 +18°C° 0 mm 3 mps 737 mmHg 91%
    22:00 +17°C° 0 mm 2 mps 737 mmHg 92%
    23:00 +16°C° 0 mm 2 mps 737 mmHg 93%

    25 May, Friday

    Time Temperature Precipitation Wind Pressure Humidity
    00:00 +16°C° 0 mm 2 mps 737 mmHg 94%
    01:00 +15°C° 0 mm 2 mps 737 mmHg 94%
    02:00 +15°C° 0 mm 1 mps 737 mmHg 94%
    03:00 +15°C° 0 mm 2 mps 738 mmHg 94%
    04:00 +14°C° 0 mm 2 mps 738 mmHg 95%
    05:00 +14°C° 0 mm 2 mps 738 mmHg 95%
    06:00 +16°C° 0 mm 2 mps 738 mmHg 91%
    07:00 +17°C° 0 mm 2 mps 738 mmHg 87%
    08:00 +18°C° 0 mm 3 mps 739 mmHg 83%
    09:00 +20°C° 0 mm 4 mps 739 mmHg 77%
    10:00 +21°C° 0 mm 4 mps 739 mmHg 70%
    11:00 +22°C° 0 mm 5 mps 739 mmHg 64%
    12:00 +22°C° 0 mm 5 mps 739 mmHg 62%
    13:00 +23°C° 0 mm 5 mps 739 mmHg 60%
    14:00 +23°C° 0 mm 5 mps 739 mmHg 57%
    15:00 +23°C° 0 mm 5 mps 739 mmHg 60%
    16:00 +23°C° 0 mm 5 mps 739 mmHg 62%
    17:00 +22°C° 0 mm 5 mps 738 mmHg 65%
    18:00 +21°C° 0.1 mm 4 mps 739 mmHg 70%
    19:00 +19°C° 0.1 mm 4 mps 739 mmHg 76%
    20:00 +18°C° 0.1 mm 3 mps 739 mmHg 82%
    21:00 +17°C° 0 mm 3 mps 739 mmHg 84%
    22:00 +16°C° 0 mm 3 mps 739 mmHg 87%
    23:00 +14°C° 0 mm 3 mps 740 mmHg 90%

    26 May, Saturday

    Time Temperature Precipitation Wind Pressure Humidity
    00:00 +14°C° 0 mm 3 mps 740 mmHg 91%
    01:00 +13°C° 0 mm 3 mps 740 mmHg 93%
    02:00 +13°C° 0 mm 3 mps 740 mmHg 94%
    03:00 +12°C° 0 mm 3 mps 740 mmHg 95%
    04:00 +12°C° 0 mm 3 mps 740 mmHg 96%
    05:00 +11°C° 0 mm 3 mps 741 mmHg 96%
    06:00 +12°C° 0 mm 3 mps 741 mmHg 91%
    07:00 +14°C° 0 mm 4 mps 741 mmHg 85%
    08:00 +15°C° 0 mm 4 mps 741 mmHg 79%
    09:00 +16°C° 0 mm 5 mps 741 mmHg 75%
    10:00 +17°C° 0 mm 5 mps 742 mmHg 71%
    11:00 +19°C° 0 mm 5 mps 742 mmHg 67%
    12:00 +20°C° 0 mm 6 mps 742 mmHg 66%
    13:00 +20°C° 0 mm 6 mps 742 mmHg 64%
    14:00 +21°C° 0 mm 6 mps 741 mmHg 63%
    15:00 +21°C° 0 mm 6 mps 741 mmHg 64%
    16:00 +21°C° 0 mm 6 mps 741 mmHg 66%
    17:00 +20°C° 0 mm 5 mps 741 mmHg 67%
    18:00 +19°C° 0 mm 5 mps 741 mmHg 73%
    19:00 +18°C° 0 mm 4 mps 741 mmHg 78%
    20:00 +16°C° 0 mm 3 mps 741 mmHg 83%
    21:00 +15°C° 0 mm 4 mps 741 mmHg 84%
    22:00 +14°C° 0 mm 4 mps 741 mmHg 85%
    23:00 +13°C° 0 mm 4 mps 742 mmHg 85%
    Show more